sat.trackr.live / text

‹ back to catalog

ONEWEB-0151

NORAD 48066 · 2021-025AA

PAYLOAD ACTIVE UNKNOWN

§ Identity

Operator
Country
UK
Launch date
2021-03-25
Launch site
VOSTO
Launch vehicle
Mass (kg)
RCS (m²)

Purposes: comms

External: N2YO · Heavens-Above · Gunter

§ Orbital elements

Epoch: 2026-09-12T01:36:51.532704Z

Period
109.63 min
Inclination
87.8932°
Eccentricity
0.0001879
Mean motion
13.13469763 rev/d
Perigee alt
1,208.3 km
Apogee alt
1,211.2 km
Semi-major
7,587.9 km
B*
2.7678e-4
RAAN
302.9382°
Arg perigee
92.2264°
Mean anomaly
267.9080°
Rev number
26,499

§ Raw data

ONEWEB-01511 48066U 21025AA  26255.06726311  .00000114  00000+0  27678-3 0  99982 48066  87.8932 302.9382 0001879  92.2264 267.9080 13.13469763264995

JSON: /api/v1/satellites/48066 · /tle

For live sub-satellite position, see the globe view (requires WebGL).

§ Visibility from observer

Set your observer location to see the next 7 days of passes ≥ 10°. The values pass through the URL so the page stays shareable.

No JS? Fill the form by hand. The geolocation button needs JavaScript.